Lid_Strength_Index
-1 -1 -1 -1 -1 -1 -1 -1 -1 -1 -1 -1 -1 -0 -1 -0 0 2 4 1 1 -1 -0 2 3 5 6 8 8 10 14 15 14 14 14 12 12 10 9 8 8 6 7 7 3
-1 -1 -1 -1 -1 -1 -1 -1 -1 -1 -1 -1 -1 -1 -1 -0 2 4 1 -1 -1 -1 2 4 6 5 8 9 9 11 14 13 11 13 14 12 11 10 9 9 9 9 6 5 3
-1 -1 -1 -1 -1 -1 -1 -1 -1 -1 -1 -1 -1 -1 -0 0 4 4 -1 -2 -2 0 2 3 3 6 8 9 10 10 12 11 10 11 11 12 11 11 10 11 9 8 6 5 5
-1 -1 -1 -1 -1 -1 -1 -1 -1 -1 -1 -1 -1 -0 0 2 11 3 -2 -2 -2 2 3 3 5 9 10 10 9 11 9 9 8 7 9 11 11 12 10 10 10 7 5 5 5
-1 -1 -1 -1 -1 -1 -1 -1 -1 -1 -1 -1 -1 -1 1 5 6 1 -2 -1 1 2 3 5 7 8 11 9 8 10 10 9 7 7 8 10 11 12 12 11 8 6 5 5 4
-1 -1 -1 -1 -1 -1 -1 -1 -1 -1 -1 -1 -1 -0 3 9 2 0 0 1 2 3 4 4 6 5 9 10 9 8 9 9 8 8 9 10 11 11 11 11 7 6 6 5 5
-1 -1 -1 -1 -1 -1 -1 -1 -1 -1 -1 -1 -1 0 4 6 1 0 0 2 2 2 4 4 3 6 7 10 7 9 11 9 9 9 10 11 11 13 11 9 8 7 7 6 5
-1 -1 -1 -1 -1 -1 -1 -1 -1 -1 -1 -1 -1 1 6 0 -0 0 1 2 2 2 3 3 4 6 8 7 8 12 12 15 10 9 8 12 13 11 10 9 9 7 7 6 6
-1 -0 -1 -1 -1 -1 -1 -1 -1 -1 -2 -1 1 3 7 -0 3 1 2 3 3 2 2 2 4 7 8 11 13 13 16 16 12 9 10 12 13 10 10 10 10 9 7 7 6
-1 -1 -1 -1 -1 -1 -1 -1 -1 -1 -0 0 1 6 4 6 3 2 2 2 4 4 5 6 7 10 11 12 17 16 16 15 15 11 11 12 12 11 11 11 12 12 10 8 6
-1 -1 -1 -1 -1 -1 -0 1 4 6 3 6 7 7 5 3 2 3 2 3 4 6 10 8 11 13 12 11 11 12 15 15 13 10 11 12 11 10 9 11 12 11 11 11 7
-1 -0 -1 -1 -1 -1 0 5 5 6 8 5 5 5 4 4 7 5 2 7 8 11 9 11 13 10 9 10 11 13 15 16 12 10 11 12 12 9 10 10 10 10 11 10 11
-1 -0 -0 -0 -1 0 2 4 2 3 8 7 5 5 6 4 8 7 4 6 9 11 11 12 11 8 10 11 13 13 13 14 15 11 12 13 14 12 10 10 9 10 10 9 9
-0 -1 -0 -0 2 2 4 2 2 4 13 11 8 6 5 5 8 4 3 6 9 11 10 11 8 10 11 12 11 15 11 12 13 14 18 14 19 14 12 11 10 9 10 10 9
-0 -1 -0 -0 2 4 3 2 2 5 20 9 8 3 5 8 8 7 4 6 10 11 10 12 11 11 13 12 10 13 10 11 12 14 15 15 17 15 13 13 11 10 9 8 9
-1 -1 -0 1 1 1 1 1 4 13 19 12 9 9 9 8 9 7 7 5 6 10 10 11 9 9 10 9 9 9 12 13 13 14 19 15 16 17 15 13 11 10 9 8 8
-0 -0 1 2 4 1 1 4 14 18 14 13 12 10 10 11 10 9 10 11 12 15 15 12 12 10 9 12 10 11 14 19 20 20 20 16 16 15 13 12 11 10 9 8 8
-0 -0 0 3 1 2 3 10 18 19 15 10 10 10 12 11 11 11 11 13 10 11 13 16 17 11 9 11 13 12 13 18 22 22 19 15 17 15 11 10 9 9 8 8 9
-0 1 3 4 1 1 7 15 16 14 13 11 11 13 13 11 11 11 11 12 10 10 14 15 15 11 9 10 10 13 15 11 17 22 18 17 14 12 11 11 10 10 9 9 8
2 4 5 1 1 4 10 14 16 12 9 10 14 12 15 13 13 13 12 10 10 8 8 12 16 12 11 9 9 11 10 16 16 21 23 18 17 15 13 11 10 10 9 9 10
4 9 4 0 2 7 13 14 13 10 8 11 13 13 12 13 12 14 13 12 9 9 8 10 13 14 11 13 14 13 14 14 14 16 20 21 17 13 11 10 11 10 9 10 10
5 11 3 1 10 11 12 12 9 12 10 11 11 12 12 11 12 13 13 12 9 8 12 9 12 16 14 11 11 10 12 12 17 18 16 17 17 12 12 11 11 11 11 11 11
9 8 2 3 13 12 11 11 11 12 12 11 12 11 10 12 14 12 11 10 8 9 11 10 14 17 16 13 11 13 12 11 12 13 17 19 16 12 12 12 12 12 12 12 12
7 11 8 8 8 11 12 11 13 11 12 11 11 10 11 12 11 12 12 10 9 8 7 8 12 15 17 16 13 15 13 12 13 16 16 15 14 11 11 11 10 9 11 12 12
8 11 11 14 11 11 12 11 12 13 12 11 11 10 11 13 12 13 11 11 10 8 8 9 14 14 13 13 13 14 13 12 14 13 15 14 13 11 9 9 9 8 9 12 11
11 10 10 11 10 11 11 12 12 13 13 14 12 11 12 12 12 13 11 11 12 10 10 9 14 13 15 12 12 14 12 12 12 12 12 12 13 10 8 8 9 10 10 10 12
10 10 8 10 11 12 15 12 12 12 12 11 10 12 12 12 10 9 10 10 10 11 11 11 13 15 22 13 13 17 13 13 12 11 11 14 11 8 9 9 9 9 9 10 11